Location: Newark
(12.4436°N, 0.6167°W)
Time: 16:41:00
(UTC+00:00)

deb Explorer IX - Pass Details

Date: 09 December 2019
Orbit: 548 x 1101 km, 38.8° (Epoch: 19 January)

Event Time Altitude Azimuth Distance (km) Brightness Sun altitude
Rises 13:01:50 0° 205° (SSW) 2,828 ? 51.1°
Reaches altitude 10° 13:04:18 10° 192° (SSW) 1,991 ? 50.8°
Maximum altitude 13:08:09 26° 135° (SE) 1,318 ? 50.4°
Drops below altitude 10° 13:12:29 10° 79° (E) 2,260 ? 49.9°
Sets 13:15:28 0° 67° (ENE) 3,296 ? 49.6°
